User: anonymous   Login
Location: Helsinki
(60.1699°N, 24.9384°E)
Time: 16:31:07
(UTC+02:00)
Language:

Tiros 1 despin weight - Orbit

View from above orbital plane
View from above orbital plane
View from above satellite
View from above satellite

Ground track
Ground track

The orbit data is extracted from the following two-line orbital elements,

1   115U 60002D   20303.81662668 +.00000097 +00000-0 +38674-4 0  9994
2   115 048.1678 348.1091 0033880 121.7282 238.6940 14.83637338211769
Epoch (UTC): 29 October 2020 19:35:56
Eccentricity: 0.0033880
inclination: 48.1678°
perigee height: 594 km
apogee height: 641 km
right ascension of ascending node: 348.1091°
argument of perigee: 121.7282°
revolutions per day: 14.83637338
mean anomaly at epoch: 238.6940°
orbit number at epoch: 21176

The dashed part of the orbit path shows where the satellite is in the earth's shadow,  

DLR